Tracking 20942 objects as of 15-Jul-2020
HD Live streaming from Space Station
objects crossing your sky now

NATO 3D

Track NATO 3D now!
NATO 3D is classified as:


NORAD ID: 15391
Int'l Code: 1984-115A
Perigee: 36,896.3 km
Apogee: 37,810.3 km
Inclination: 14.5 °
Period: 1,516.5 minutes
Semi major axis: 43724 km
RCS: 5.3188 m2 (large)
Launch date: November 14, 1984
Source: North Atlantic Treaty Organization (NATO)
Launch site: AIR FORCE EASTERN TEST RANGE (AFETR)
aabbcc
Your satellite tracking list
Your tracking list is empty




NASA's NSSDC Master Catalog

Two Line Element Set (TLE):
1 15391U 84115A   20196.88174521 -.00000209 +00000-0 +00000-0 0  9994
2 15391 014.5029 008.2966 0104509 079.5727 291.4031 00.94955177127343
Source of the keplerian elements: AFSPC